Back to catalog

SL-8 R/B

AliveLEO
NORAD 9023·ROCKET BODY·🇷🇺 Russia

Launched Jul 15, 1976 from Plesetsk Cosmodrome

Loading…

Next Passes (next 24 hours)

TLE

FreshSource: Space-Track

Epoch: Sep 14, 2026, 05:34 UTC

1 09023U 76069B   26257.23259891  .00000143  00000-0  52372-4 0  9994
2 09023  74.0445 340.9260 0016591  28.6048 331.6015 14.41262415630507

Track SL-8 R/B in real time with AllMySat

Download on the App Store